Terminal Aerodrome Forecast
Issued by NWS Dodge City, KS

Home | Current Version | Previous Version | Text Only | Print | Product List | Glossary On
Versions: 1 2 3 4 5 6 7 8 9 10 11 12 13 14 15 16 17 18 19 20 21 22 23 24 25 26 27 28 29 30 31 32 33 34 35 36 37 38 39 40 41 42 43 44
000
FTUS43 KDDC 270950 AAA
TAFDDC
TAF AMD
KDDC 270950Z 2710/2806 23012KT P6SM -SHRA SCT050 OVC100
     FM271300 20013G22KT P6SM BKN120
      TEMPO 2721/2801 5SM -TSRA BKN050CB=

USA.gov is the U.S. government's official web portal to all federal, state and local government web resources and services.